This demonstration page uses our WeatherBlox Daily Observations layout. Learn more.

Left ArrowRight Arrow

31.31129, -92.44514

Hourly Observations for December 16, 2021

Temp ( °F °C ) Dew Point ( °F °C ) Humidity (%) Winds ( mph kmh ) Pressure ( in mb ) Visibility ( mi km ) Precip ( " mm )
12:53 am 00:53 Cloudy 71 21.7 65 18.3 81 81 SSE 15 24 30.07 1018 10 16 0.00 0.00
1:14 am 01:14 Cloudy 71 21.7 65 18.3 81 81 S 12 19 30.07 1018 10 16 0.00 0.00
1:53 am 01:53 Cloudy with Light Rain 71 21.7 65 18.3 81 81 SSE 13 20 30.08 1019 10 16 0.00 0.00
2:53 am 02:53 Cloudy 71 21.7 66 18.9 84 84 S 13 20 30.07 1018 10 16 0.00 0.00
3:53 am 03:53 Cloudy 71 21.7 66 18.9 84 84 SSE 12 19 30.07 1018 10 16 0.00 0.00
4:53 am 04:53 Cloudy 71 21.7 66 18.9 84 84 SSE 10 17 30.08 1019 10 16 0.00 0.00
5:23 am 05:23 Cloudy 70 21.1 66 18.9 87 87 SSE 7 11 30.08 1019 10 16 0.00 0.00
5:53 am 05:53 Cloudy 70 21.1 66 18.9 87 87 ESE 6 9 30.09 1019 9 14 0.00 0.00
6:53 am 06:53 Cloudy 70 21.1 66 18.9 87 87 SE 9 15 30.10 1019 8 13 0.00 0.00
7:38 am 07:38 Cloudy with Mist and Fog 70 21.1 66 18.9 87 87 SSE 9 15 30.09 1019 6 10 0.00 0.00
7:53 am 07:53 Cloudy with Mist and Fog 70 21.1 66 18.9 87 87 SSE 10 17 30.10 1019 6 10 0.00 0.00
8:53 am 08:53 Cloudy 71 21.7 67 19.4 87 87 SSE 9 15 30.11 1020 7 11 0.00 0.00
9:53 am 09:53 Cloudy 73 22.8 68 20 84 84 S 10 17 30.13 1020 8 13 0.00 0.00
10:53 am 10:53 Cloudy 74 23.3 68 20 82 82 S 8 13 30.14 1021 9 14 0.00 0.00
11:00 am 11:00 Cloudy 74 23.3 68 20 82 82 SSE 9 15 30.13 1020 9 14 0.00 0.00
11:53 am 11:53 Mostly Cloudy 75 23.9 68 20 79 79 S 8 13 30.11 1020 10 16 0.00 0.00
12:17 pm 12:17 Cloudy 77 25 68 20 74 74 SSE 9 15 30.08 1019 10 16 0.00 0.00
12:53 pm 12:53 Cloudy 78 25.6 67 19.4 69 69 S 15 24 30.07 1018 10 16 0.00 0.00
1:53 pm 13:53 Mostly Cloudy 79 26.1 66 18.9 65 65 SSW 13 20 30.04 1017 10 16 0.00 0.00
2:53 pm 14:53 Partly Cloudy 80 26.7 66 18.9 62 62 SSW 10 17 30.03 1017 10 16 0.00 0.00
3:53 pm 15:53 Mostly Sunny 79 26.1 66 18.9 65 65 S 9 15 30.03 1017 10 16 0.00 0.00
4:53 pm 16:53 Cloudy with Heavy Rain 74 23.3 67 19.4 79 79 S 10 17 30.04 1017 2 2 0.08 2.03
5:01 pm 17:01 Cloudy with Light Rain 73 22.8 68 20 84 84 SSE 8 13 30.03 1017 3 4 0.01 0.25
5:04 pm 17:04 Cloudy with Light Rain 73 22.8 67 19.4 81 81 SSE 9 15 30.03 1017 7 11 0.01 0.25
5:53 pm 17:53 Mostly Cloudy 70 21.1 67 19.4 90 90 ESE 6 9 30.04 1017 10 16 0.01 0.25
6:53 pm 18:53 Clear 69 20.6 66 18.9 90 90 SE 7 11 30.05 1018 10 16 0.00 0.00
7:53 pm 19:53 Clear 69 20.6 66 18.9 90 90 SSE 6 9 30.06 1018 10 16 0.00 0.00
8:53 pm 20:53 Clear 66 18.9 64 17.8 93 93 SSE 6 9 30.06 1018 7 11 0.00 0.00
9:53 pm 21:53 Clear 67 19.4 64 17.8 91 91 SSE 3 6 30.06 1018 9 14 0.00 0.00
10:53 pm 22:53 Clear 66 18.9 64 17.8 93 93 SE 6 9 30.06 1018 7 11 0.00 0.00
11:28 pm 23:28 Partly Cloudy with Mist and Fog 67 19.4 64 17.8 91 91 SSE 12 19 30.06 1018 6 10 0.00 0.00
11:37 pm 23:37 Mostly Cloudy with Mist and Fog 68 20 66 18.9 93 93 SSE 9 15 30.06 1018 6 10 0.00 0.00
11:53 pm 23:53 Cloudy with Mist and Fog 69 20.6 67 19.4 93 93 SSE 7 11 30.06 1018 4 6 0.00 0.00

Powered by AerisWeather